Year,Month,Day,Hour,Minute,Value (Times are PST for temperature in C)
2015,06,23,07,24,13.90
2015,06,23,07,25,13.90
2015,06,23,07,26,13.90
2015,06,23,07,27,13.80
2015,06,23,07,28,13.80
2015,06,23,07,29,13.80
2015,06,23,07,30,13.80
2015,06,23,07,31,13.80
2015,06,23,07,32,13.80
2015,06,23,07,33,13.80
2015,06,23,07,34,13.80
2015,06,23,07,35,13.80
2015,06,23,07,36,13.80
2015,06,23,07,37,13.90
2015,06,23,07,38,13.90
2015,06,23,07,39,13.90
2015,06,23,07,40,13.90
2015,06,23,07,41,13.90
2015,06,23,07,42,14.00
2015,06,23,07,43,14.00
2015,06,23,07,44,14.10
2015,06,23,07,45,14.10
2015,06,23,07,46,14.10
2015,06,23,07,47,14.20
2015,06,23,07,48,14.20
2015,06,23,07,49,14.20
2015,06,23,07,50,14.30
2015,06,23,07,51,14.30
2015,06,23,07,52,14.30
2015,06,23,07,53,14.30
2015,06,23,07,54,14.40
2015,06,23,07,55,14.40
2015,06,23,07,56,14.50
2015,06,23,07,57,14.50
2015,06,23,07,58,14.50
2015,06,23,07,59,14.60
2015,06,23,08,00,14.60
2015,06,23,08,01,14.60
2015,06,23,08,02,14.70
2015,06,23,08,03,14.70
2015,06,23,08,04,14.70
2015,06,23,08,05,14.70
2015,06,23,08,06,14.70
2015,06,23,08,07,14.70
2015,06,23,08,08,14.70
2015,06,23,08,09,14.70
2015,06,23,08,10,14.70
2015,06,23,08,11,14.80
2015,06,23,08,12,14.80
2015,06,23,08,13,14.80
2015,06,23,08,14,14.80
2015,06,23,08,15,14.80
2015,06,23,08,16,14.80
2015,06,23,08,17,14.80
2015,06,23,08,18,14.80
2015,06,23,08,19,14.80
2015,06,23,08,20,14.80
2015,06,23,08,21,14.80
2015,06,23,08,22,14.80
2015,06,23,08,23,14.80
2015,06,23,08,24,14.80
2015,06,23,08,25,14.80
2015,06,23,08,26,14.80
2015,06,23,08,27,14.90
2015,06,23,08,28,14.90
2015,06,23,08,29,15.00
2015,06,23,08,30,15.00
2015,06,23,08,31,15.00
2015,06,23,08,32,15.10
2015,06,23,08,33,15.20
2015,06,23,08,34,15.20
2015,06,23,08,35,15.30
2015,06,23,08,36,15.30
2015,06,23,08,37,15.30
2015,06,23,08,38,15.30
2015,06,23,08,39,15.30
2015,06,23,08,40,15.30
2015,06,23,08,41,15.30
2015,06,23,08,42,15.30
2015,06,23,08,43,15.30
2015,06,23,08,44,15.30
2015,06,23,08,45,15.30
2015,06,23,08,46,15.30
2015,06,23,08,47,15.30
2015,06,23,08,48,15.30
2015,06,23,08,49,15.30
2015,06,23,08,50,15.40
2015,06,23,08,51,15.40
2015,06,23,08,52,15.50
2015,06,23,08,53,15.60
2015,06,23,08,54,15.60
2015,06,23,08,55,15.70
2015,06,23,08,56,15.60
2015,06,23,08,57,15.60
2015,06,23,08,58,15.50
2015,06,23,08,59,15.60
2015,06,23,09,00,15.60
2015,06,23,09,01,15.60
2015,06,23,09,02,15.50
2015,06,23,09,03,15.50
2015,06,23,09,04,15.40
2015,06,23,09,05,15.40
2015,06,23,09,06,15.50
2015,06,23,09,07,15.50
2015,06,23,09,08,15.50
2015,06,23,09,09,15.50
2015,06,23,09,10,15.50
2015,06,23,09,11,15.50
2015,06,23,09,12,15.40
2015,06,23,09,13,15.40
2015,06,23,09,14,15.40
2015,06,23,09,15,15.40
2015,06,23,09,16,15.50
2015,06,23,09,17,15.50
2015,06,23,09,18,15.60
2015,06,23,09,19,15.60
2015,06,23,09,20,15.60
2015,06,23,09,21,15.70
2015,06,23,09,22,15.80
2015,06,23,09,23,15.90
2015,06,23,09,24,15.90
2015,06,23,09,25,15.90
2015,06,23,09,26,15.90
2015,06,23,09,27,15.90
2015,06,23,09,28,15.90
2015,06,23,09,29,15.90
2015,06,23,09,30,16.00
2015,06,23,09,31,16.10
2015,06,23,09,32,16.20
2015,06,23,09,33,16.30
2015,06,23,09,34,16.30
2015,06,23,09,35,16.40
2015,06,23,09,36,16.40
2015,06,23,09,37,16.40
2015,06,23,09,38,16.40
2015,06,23,09,39,16.60
2015,06,23,09,40,16.60
2015,06,23,09,41,16.70
2015,06,23,09,42,16.70
2015,06,23,09,43,16.90
2015,06,23,09,44,17.00
2015,06,23,09,45,17.00
2015,06,23,09,46,17.10
2015,06,23,09,47,17.10
2015,06,23,09,48,17.20
2015,06,23,09,49,17.30
2015,06,23,09,50,17.40
2015,06,23,09,51,17.50
2015,06,23,09,52,17.50
2015,06,23,09,53,17.50
2015,06,23,09,54,17.50
2015,06,23,09,55,17.60
2015,06,23,09,56,17.70
2015,06,23,09,57,17.70
2015,06,23,09,58,17.80
2015,06,23,09,59,17.90
2015,06,23,10,00,17.90
2015,06,23,10,01,17.90
2015,06,23,10,02,17.90
2015,06,23,10,03,17.90
2015,06,23,10,04,17.90
2015,06,23,10,05,17.90
2015,06,23,10,06,18.00
2015,06,23,10,07,18.10
2015,06,23,10,08,18.20
2015,06,23,10,09,18.20
2015,06,23,10,10,18.10
2015,06,23,10,11,18.10
2015,06,23,10,12,18.10
2015,06,23,10,13,18.10
2015,06,23,10,14,18.20
2015,06,23,10,15,18.20
2015,06,23,10,16,18.20
2015,06,23,10,17,18.20
2015,06,23,10,18,18.20
2015,06,23,10,19,18.20
2015,06,23,10,20,18.20
2015,06,23,10,21,18.20
2015,06,23,10,22,18.30
2015,06,23,10,23,18.20
2015,06,23,10,24,18.20
2015,06,23,10,25,18.20
2015,06,23,10,26,18.20
2015,06,23,10,27,18.20
2015,06,23,10,28,18.10
2015,06,23,10,29,18.10
2015,06,23,10,30,18.00
2015,06,23,10,31,17.90
2015,06,23,10,32,17.90
2015,06,23,10,33,18.00
2015,06,23,10,34,18.10
2015,06,23,10,35,18.10
2015,06,23,10,36,18.10
2015,06,23,10,37,18.10
2015,06,23,10,38,18.10
2015,06,23,10,39,18.00
2015,06,23,10,40,17.90
2015,06,23,10,41,17.90
2015,06,23,10,42,17.90
2015,06,23,10,43,17.80
2015,06,23,10,44,17.80
2015,06,23,10,45,17.90
2015,06,23,10,46,17.90
2015,06,23,10,47,17.90
2015,06,23,10,48,18.10
2015,06,23,10,49,18.10
2015,06,23,10,50,18.10
2015,06,23,10,51,18.20
2015,06,23,10,52,18.30
2015,06,23,10,53,18.40
2015,06,23,10,54,18.40
2015,06,23,10,55,18.30
2015,06,23,10,56,18.40
2015,06,23,10,57,18.50
2015,06,23,10,58,18.50
2015,06,23,10,59,18.60
2015,06,23,11,00,18.70
2015,06,23,11,01,18.70
2015,06,23,11,02,18.60
2015,06,23,11,03,18.60
2015,06,23,11,04,18.60
2015,06,23,11,05,18.70
2015,06,23,11,06,18.80
2015,06,23,11,07,18.80
2015,06,23,11,08,18.80
2015,06,23,11,09,18.80
2015,06,23,11,10,18.80
2015,06,23,11,11,18.80
2015,06,23,11,12,18.90
2015,06,23,11,13,18.70
2015,06,23,11,14,18.70
2015,06,23,11,15,18.70
2015,06,23,11,16,18.70
2015,06,23,11,17,18.70
2015,06,23,11,18,18.60
2015,06,23,11,19,18.70
2015,06,23,11,20,18.70
2015,06,23,11,21,18.70
2015,06,23,11,22,18.80
2015,06,23,11,23,18.80
2015,06,23,11,24,18.80
2015,06,23,11,25,18.80
2015,06,23,11,26,18.80
2015,06,23,11,27,18.90
2015,06,23,11,28,18.90
2015,06,23,11,29,18.80
2015,06,23,11,30,18.70
2015,06,23,11,31,18.70
2015,06,23,11,32,18.80
2015,06,23,11,33,18.90
2015,06,23,11,34,19.00
2015,06,23,11,35,19.10
2015,06,23,11,36,19.20
2015,06,23,11,37,19.30
2015,06,23,11,38,19.10
2015,06,23,11,39,19.00
2015,06,23,11,40,18.90
2015,06,23,11,41,18.90
2015,06,23,11,42,18.90
2015,06,23,11,43,18.90
2015,06,23,11,44,18.90
2015,06,23,11,45,18.80
2015,06,23,11,46,18.80
2015,06,23,11,47,18.80
2015,06,23,11,48,18.80
2015,06,23,11,49,18.80
2015,06,23,11,50,18.90
2015,06,23,11,51,18.90
2015,06,23,11,52,19.00
2015,06,23,11,53,19.10
2015,06,23,11,54,19.10
2015,06,23,11,55,19.30
2015,06,23,11,56,19.40
2015,06,23,11,57,19.50
2015,06,23,11,58,19.50
2015,06,23,11,59,19.60
2015,06,23,12,00,19.70
2015,06,23,12,01,19.80
2015,06,23,12,02,19.90
2015,06,23,12,03,19.90
2015,06,23,12,04,19.90
2015,06,23,12,05,19.90
2015,06,23,12,06,20.00
2015,06,23,12,07,20.10
2015,06,23,12,08,20.10
2015,06,23,12,09,20.10
2015,06,23,12,10,20.20
2015,06,23,12,11,20.20
2015,06,23,12,12,20.10
2015,06,23,12,13,19.90
2015,06,23,12,14,19.90
2015,06,23,12,15,19.90
2015,06,23,12,16,19.90
2015,06,23,12,17,19.90
2015,06,23,12,18,19.90
2015,06,23,12,19,19.90
2015,06,23,12,20,19.90
2015,06,23,12,21,19.90
2015,06,23,12,22,20.00
2015,06,23,12,23,20.10
2015,06,23,12,24,20.20
2015,06,23,12,25,20.20
2015,06,23,12,26,20.20
2015,06,23,12,27,20.30
2015,06,23,12,28,20.30
2015,06,23,12,29,20.30
2015,06,23,12,30,20.30
2015,06,23,12,31,20.20
2015,06,23,12,32,20.20
2015,06,23,12,33,20.20
2015,06,23,12,34,20.10
2015,06,23,12,35,19.90
2015,06,23,12,36,19.70
2015,06,23,12,37,19.60
2015,06,23,12,38,19.60
2015,06,23,12,39,19.70
2015,06,23,12,40,19.90
2015,06,23,12,41,20.00
2015,06,23,12,42,20.20
2015,06,23,12,43,20.30
2015,06,23,12,44,20.40
2015,06,23,12,45,20.60
2015,06,23,12,46,20.60
2015,06,23,12,47,20.70
2015,06,23,12,48,20.80
2015,06,23,12,49,20.90
2015,06,23,12,50,21.00
2015,06,23,12,51,21.00
2015,06,23,12,52,21.00
2015,06,23,12,53,21.00
2015,06,23,12,54,21.00
2015,06,23,12,55,20.90
2015,06,23,12,56,20.80
2015,06,23,12,57,20.80
2015,06,23,12,58,20.70
2015,06,23,12,59,20.70
2015,06,23,13,00,20.80
2015,06,23,13,01,20.80
2015,06,23,13,02,20.90
2015,06,23,13,03,20.90
2015,06,23,13,04,20.80
2015,06,23,13,05,20.70
2015,06,23,13,06,20.60
2015,06,23,13,07,20.60
2015,06,23,13,08,20.60
2015,06,23,13,09,20.80
2015,06,23,13,10,20.90
2015,06,23,13,11,21.00
2015,06,23,13,12,21.10
2015,06,23,13,13,21.30
2015,06,23,13,14,21.30
2015,06,23,13,15,21.30
2015,06,23,13,16,21.30
2015,06,23,13,17,21.20
2015,06,23,13,18,21.10
2015,06,23,13,19,21.10
2015,06,23,13,20,21.00
2015,06,23,13,21,20.90
2015,06,23,13,22,20.80
2015,06,23,13,23,20.60
2015,06,23,13,24,20.50
2015,06,23,13,25,20.50
2015,06,23,13,26,20.60
2015,06,23,13,27,20.60
2015,06,23,13,28,20.60
2015,06,23,13,29,20.70
2015,06,23,13,30,20.70
2015,06,23,13,31,20.70
2015,06,23,13,32,20.80
2015,06,23,13,33,20.80
2015,06,23,13,34,20.70
2015,06,23,13,35,20.70
2015,06,23,13,36,20.70
2015,06,23,13,37,20.60
2015,06,23,13,38,20.50
2015,06,23,13,39,20.50
2015,06,23,13,40,20.30
2015,06,23,13,41,20.30
2015,06,23,13,42,20.30
2015,06,23,13,43,20.20
2015,06,23,13,44,20.20
2015,06,23,13,45,20.20
2015,06,23,13,46,20.00
2015,06,23,13,47,19.80
2015,06,23,13,48,19.70
2015,06,23,13,49,19.50
2015,06,23,13,50,19.30
2015,06,23,13,51,19.20
2015,06,23,13,52,19.10
2015,06,23,13,53,19.10
2015,06,23,13,54,19.10
2015,06,23,13,55,19.10
2015,06,23,13,56,19.20
2015,06,23,13,57,19.30
2015,06,23,13,58,19.30
2015,06,23,13,59,19.30
2015,06,23,14,00,19.30
2015,06,23,14,01,19.20
2015,06,23,14,02,19.10
2015,06,23,14,03,19.10
2015,06,23,14,04,19.00
2015,06,23,14,05,18.80
2015,06,23,14,06,18.50
2015,06,23,14,07,18.20
2015,06,23,14,08,18.10
2015,06,23,14,09,18.00
2015,06,23,14,10,17.90
2015,06,23,14,11,17.90
2015,06,23,14,12,17.90
2015,06,23,14,13,18.00
2015,06,23,14,14,18.10
2015,06,23,14,15,18.20
2015,06,23,14,16,18.20
2015,06,23,14,17,18.20
2015,06,23,14,18,18.20
2015,06,23,14,19,18.30
2015,06,23,14,20,18.30
2015,06,23,14,21,18.40
2015,06,23,14,22,18.40
2015,06,23,14,23,18.40
2015,06,23,14,24,18.30
2015,06,23,14,25,18.30
2015,06,23,14,26,18.30
2015,06,23,14,27,18.40
2015,06,23,14,28,18.40
2015,06,23,14,29,18.50
2015,06,23,14,30,18.50
2015,06,23,14,31,18.60
2015,06,23,14,32,18.70
2015,06,23,14,33,18.90
2015,06,23,14,34,18.90
2015,06,23,14,35,19.10
2015,06,23,14,36,19.10
2015,06,23,14,37,19.10
2015,06,23,14,38,19.10
2015,06,23,14,39,19.10
2015,06,23,14,40,19.30
2015,06,23,14,41,19.40
2015,06,23,14,42,19.40
2015,06,23,14,43,19.50
2015,06,23,14,44,19.60
2015,06,23,14,45,19.70
2015,06,23,14,46,19.70
2015,06,23,14,47,19.80
2015,06,23,14,48,19.80
2015,06,23,14,49,19.90
2015,06,23,14,50,19.80
2015,06,23,14,51,19.60
2015,06,23,14,52,19.40
2015,06,23,14,53,19.30
2015,06,23,14,54,19.10
2015,06,23,14,55,19.10
2015,06,23,14,56,19.10
2015,06,23,14,57,19.10
2015,06,23,14,58,19.10
2015,06,23,14,59,19.10
2015,06,23,15,00,19.10
2015,06,23,15,01,19.20
2015,06,23,15,02,19.30
2015,06,23,15,03,19.40
2015,06,23,15,04,19.50
2015,06,23,15,05,19.60
2015,06,23,15,06,19.60
2015,06,23,15,07,19.50
2015,06,23,15,08,19.60
2015,06,23,15,09,19.60
2015,06,23,15,10,19.60
2015,06,23,15,11,19.60
2015,06,23,15,12,19.60
2015,06,23,15,13,19.60
2015,06,23,15,14,19.50
2015,06,23,15,15,19.40
2015,06,23,15,16,19.30
2015,06,23,15,17,19.20
2015,06,23,15,18,19.10
2015,06,23,15,19,19.10
2015,06,23,15,20,18.90
2015,06,23,15,21,18.80
2015,06,23,15,22,18.60
2015,06,23,15,23,18.60
2015,06,23,15,24,18.60
2015,06,23,15,25,18.60
2015,06,23,15,26,18.50
2015,06,23,15,27,18.50
2015,06,23,15,28,18.60
2015,06,23,15,29,18.60
2015,06,23,15,30,18.80
2015,06,23,15,31,18.90
2015,06,23,15,32,18.90
2015,06,23,15,33,19.00
2015,06,23,15,34,19.10
2015,06,23,15,35,19.10
2015,06,23,15,36,19.10
2015,06,23,15,37,19.10
2015,06,23,15,38,19.10
2015,06,23,15,39,19.10
2015,06,23,15,40,19.10
2015,06,23,15,41,19.10
2015,06,23,15,42,19.10
2015,06,23,15,43,19.10
2015,06,23,15,44,19.20
2015,06,23,15,45,19.20
2015,06,23,15,46,19.20
2015,06,23,15,47,19.10
2015,06,23,15,48,19.10
2015,06,23,15,49,19.10
2015,06,23,15,50,19.10
2015,06,23,15,51,19.10
2015,06,23,15,52,19.10
2015,06,23,15,53,19.10
2015,06,23,15,54,19.10
2015,06,23,15,55,19.10
2015,06,23,15,56,19.10
2015,06,23,15,57,19.10
2015,06,23,15,58,19.10
2015,06,23,15,59,19.10
2015,06,23,16,00,19.10
2015,06,23,16,01,19.10
2015,06,23,16,02,19.10
2015,06,23,16,03,19.00
2015,06,23,16,04,18.90
2015,06,23,16,05,18.90
2015,06,23,16,06,18.80
2015,06,23,16,07,18.80
2015,06,23,16,08,18.70
2015,06,23,16,09,18.60
2015,06,23,16,10,18.50
2015,06,23,16,11,18.40
2015,06,23,16,12,18.30
2015,06,23,16,13,18.20
2015,06,23,16,14,18.20
2015,06,23,16,15,18.10
2015,06,23,16,16,18.00
2015,06,23,16,17,17.90
2015,06,23,16,18,17.80
2015,06,23,16,19,17.80
2015,06,23,16,20,17.70
2015,06,23,16,21,17.70
2015,06,23,16,22,17.80
2015,06,23,16,23,17.90
2015,06,23,16,24,18.00
2015,06,23,16,25,18.10
2015,06,23,16,26,18.10
2015,06,23,16,27,18.10
2015,06,23,16,28,18.10
2015,06,23,16,29,18.20
2015,06,23,16,30,18.30
2015,06,23,16,31,18.40
2015,06,23,16,32,18.50
2015,06,23,16,33,18.50
2015,06,23,16,34,18.60
2015,06,23,16,35,18.60
2015,06,23,16,36,18.60
2015,06,23,16,37,18.60
2015,06,23,16,38,18.60
2015,06,23,16,39,18.50
2015,06,23,16,40,18.50
2015,06,23,16,41,18.60
2015,06,23,16,42,18.60
2015,06,23,16,43,18.70
2015,06,23,16,44,18.60
2015,06,23,16,45,18.40
2015,06,23,16,46,18.20
2015,06,23,16,47,18.10
2015,06,23,16,48,17.90
2015,06,23,16,49,17.70
2015,06,23,16,50,17.50
2015,06,23,16,51,17.30
2015,06,23,16,52,17.30
2015,06,23,16,53,17.30
2015,06,23,16,54,17.30
2015,06,23,16,55,17.30
2015,06,23,16,56,17.30
2015,06,23,16,57,17.30
2015,06,23,16,58,17.20
2015,06,23,16,59,17.20
2015,06,23,17,00,17.10
2015,06,23,17,01,17.00
2015,06,23,17,02,16.90
2015,06,23,17,03,16.90
2015,06,23,17,04,16.90
2015,06,23,17,05,17.00
2015,06,23,17,06,17.00
2015,06,23,17,07,17.10
2015,06,23,17,08,17.10
2015,06,23,17,09,17.10
2015,06,23,17,10,17.00
2015,06,23,17,11,17.00
2015,06,23,17,12,17.00
2015,06,23,17,13,17.00
2015,06,23,17,14,17.00
2015,06,23,17,15,17.00
2015,06,23,17,16,17.00
2015,06,23,17,17,17.00
2015,06,23,17,18,17.00
2015,06,23,17,19,17.00
2015,06,23,17,20,16.90
2015,06,23,17,21,16.90
2015,06,23,17,22,17.00
2015,06,23,17,23,17.10
2015,06,23,17,24,17.20
2015,06,23,17,25,17.20
2015,06,23,17,26,17.20
2015,06,23,17,27,17.20
2015,06,23,17,28,17.30
2015,06,23,17,29,17.40
2015,06,23,17,30,17.50
2015,06,23,17,31,17.50
2015,06,23,17,32,17.40
2015,06,23,17,33,17.40
2015,06,23,17,34,17.40
2015,06,23,17,35,17.40
2015,06,23,17,36,17.30
2015,06,23,17,37,17.30
2015,06,23,17,38,17.30
2015,06,23,17,39,17.30
2015,06,23,17,40,17.30
2015,06,23,17,41,17.20
2015,06,23,17,42,17.10
2015,06,23,17,43,17.00
2015,06,23,17,44,17.00
2015,06,23,17,45,17.00
2015,06,23,17,46,17.10
2015,06,23,17,47,17.10
2015,06,23,17,48,17.20
2015,06,23,17,49,17.10
2015,06,23,17,50,17.10
2015,06,23,17,51,17.20
2015,06,23,17,52,17.30
2015,06,23,17,53,17.30
2015,06,23,17,54,17.40
2015,06,23,17,55,17.50
2015,06,23,17,56,17.60
2015,06,23,17,57,17.70
2015,06,23,17,58,17.90
2015,06,23,17,59,18.00
2015,06,23,18,00,18.20
2015,06,23,18,01,18.20
2015,06,23,18,02,18.40
2015,06,23,18,03,18.50
2015,06,23,18,04,18.50
2015,06,23,18,05,18.60
2015,06,23,18,06,18.60
2015,06,23,18,07,18.70
2015,06,23,18,08,18.70
2015,06,23,18,09,18.70
2015,06,23,18,10,18.60
2015,06,23,18,11,18.60
2015,06,23,18,12,18.60
2015,06,23,18,13,18.50
2015,06,23,18,14,18.50
2015,06,23,18,15,18.50
2015,06,23,18,16,18.40
2015,06,23,18,17,18.30
2015,06,23,18,18,18.30
2015,06,23,18,19,18.20
2015,06,23,18,20,18.20
2015,06,23,18,21,18.20
2015,06,23,18,22,18.30
2015,06,23,18,23,18.40
2015,06,23,18,24,18.40
2015,06,23,18,25,18.50
2015,06,23,18,26,18.60
2015,06,23,18,27,18.80
2015,06,23,18,28,19.00
2015,06,23,18,29,19.10
2015,06,23,18,30,19.30
2015,06,23,18,31,19.60
2015,06,23,18,32,19.70
2015,06,23,18,33,19.90
2015,06,23,18,34,19.90
2015,06,23,18,35,20.00
2015,06,23,18,36,20.10
2015,06,23,18,37,20.20
2015,06,23,18,38,20.20
2015,06,23,18,39,20.30
2015,06,23,18,40,20.40
2015,06,23,18,41,20.50
2015,06,23,18,42,20.60
2015,06,23,18,43,20.80
2015,06,23,18,44,20.90
2015,06,23,18,45,21.00
2015,06,23,18,46,21.20
2015,06,23,18,47,21.40
2015,06,23,18,48,21.50
2015,06,23,18,49,21.70
2015,06,23,18,50,21.90
2015,06,23,18,51,22.00
2015,06,23,18,52,22.10
2015,06,23,18,53,22.20
2015,06,23,18,54,22.30
2015,06,23,18,55,22.50
2015,06,23,18,56,22.50
2015,06,23,18,57,22.60
2015,06,23,18,58,22.70
2015,06,23,18,59,22.70
2015,06,23,19,00,22.70
2015,06,23,19,01,22.70
2015,06,23,19,02,22.70
2015,06,23,19,03,22.60
2015,06,23,19,04,22.60
2015,06,23,19,05,22.60
2015,06,23,19,06,22.60
2015,06,23,19,07,22.60
2015,06,23,19,08,22.50
2015,06,23,19,09,22.50
2015,06,23,19,10,22.50
2015,06,23,19,11,22.50
2015,06,23,19,12,22.40
2015,06,23,19,13,22.40
2015,06,23,19,14,22.40
2015,06,23,19,15,22.30
2015,06,23,19,16,22.30
2015,06,23,19,17,22.30
2015,06,23,19,18,22.30
2015,06,23,19,19,22.30
2015,06,23,19,20,22.30
2015,06,23,19,21,22.20
2015,06,23,19,22,22.20
2015,06,23,19,23,22.10
2015,06,23,19,24,22.10
2015,06,23,19,25,22.00
2015,06,23,19,26,22.00
2015,06,23,19,27,22.00
2015,06,23,19,28,21.90
2015,06,23,19,29,21.90
2015,06,23,19,30,21.90
2015,06,23,19,31,21.80
2015,06,23,19,32,21.80
2015,06,23,19,33,21.80
2015,06,23,19,34,21.80
2015,06,23,19,35,21.80
2015,06,23,19,36,21.80
2015,06,23,19,37,21.80
2015,06,23,19,38,21.80
2015,06,23,19,39,21.70
2015,06,23,19,40,21.70
2015,06,23,19,41,21.70
2015,06,23,19,42,21.70
2015,06,23,19,43,21.80
2015,06,23,19,44,21.80
2015,06,23,19,45,21.70
2015,06,23,19,46,21.70
2015,06,23,19,47,21.60
2015,06,23,19,48,21.60
2015,06,23,19,49,21.60
2015,06,23,19,50,21.60
2015,06,23,19,51,21.50
2015,06,23,19,52,21.40
2015,06,23,19,53,21.40
2015,06,23,19,54,21.30
2015,06,23,19,55,21.30
2015,06,23,19,56,21.30
2015,06,23,19,57,21.30
2015,06,23,19,58,21.30
2015,06,23,19,59,21.20
2015,06,23,20,00,21.20
2015,06,23,20,01,21.20
2015,06,23,20,02,21.20
2015,06,23,20,03,21.20
2015,06,23,20,04,21.20
2015,06,23,20,05,21.20
2015,06,23,20,06,21.20
2015,06,23,20,07,21.20
2015,06,23,20,08,21.20
2015,06,23,20,09,21.20
2015,06,23,20,10,21.20
2015,06,23,20,11,21.20
2015,06,23,20,12,21.20
2015,06,23,20,13,21.20
2015,06,23,20,14,21.20
2015,06,23,20,15,21.20
2015,06,23,20,16,21.20
2015,06,23,20,17,21.20
2015,06,23,20,18,21.20
2015,06,23,20,19,21.10
2015,06,23,20,20,21.10
2015,06,23,20,21,21.10
2015,06,23,20,22,21.10
2015,06,23,20,23,21.10
2015,06,23,20,24,21.00
2015,06,23,20,25,21.00
2015,06,23,20,26,21.00
2015,06,23,20,27,21.00
2015,06,23,20,28,21.00
2015,06,23,20,29,21.00
2015,06,23,20,30,21.00
2015,06,23,20,31,21.00
2015,06,23,20,32,20.90
2015,06,23,20,33,20.90
2015,06,23,20,34,20.80
2015,06,23,20,35,20.80
2015,06,23,20,36,20.70
2015,06,23,20,37,20.70
2015,06,23,20,38,20.60
2015,06,23,20,39,20.60
2015,06,23,20,40,20.50
2015,06,23,20,41,20.50
2015,06,23,20,42,20.40
2015,06,23,20,43,20.40
2015,06,23,20,44,20.30
2015,06,23,20,45,20.20
2015,06,23,20,46,20.20
2015,06,23,20,47,20.20
2015,06,23,20,48,20.20
2015,06,23,20,49,20.20
2015,06,23,20,50,20.20
2015,06,23,20,51,20.20
2015,06,23,20,52,20.20
2015,06,23,20,53,20.20
2015,06,23,20,54,20.20
2015,06,23,20,55,20.20
2015,06,23,20,56,20.20
2015,06,23,20,57,20.20
